Location: ????????
(55.0559°N, 39.1270°E)
Time: 00:23:17
(UTC+00:00)

Cosmos 2333 Rocket - Pass Details

Date: 15 November 2025
Orbit: 837 x 865 km, 70.8° (Epoch: 12 December)

Event Time Altitude Azimuth Distance (km) Brightness Sun altitude
Exits shadow 03:59:29 - 318° (NW) 2,823 4.4 -8.0°
Reaches altitude 10° 04:00:44 10° 326° (NNW) 2,513 4.2 -7.9°
Maximum altitude 04:04:29 17° 7° (N) 2,040 4.1 -7.4°
Drops below altitude 10° 04:08:15 10° 48° (NE) 2,517 5.0 -6.9°
Sets 04:11:39 0° 68° (ENE) 3,455 6.1 -6.4°
